This is the latest recevied weather packets stored in our database for station/object KC5AV. If no packets are shown the sender has not sent any weather packets the latest 10 day(s).
| Time | Temp. | Humidity | Pressure | Rain* | Wind** | Luminosity | Snow |
|---|---|---|---|---|---|---|---|
| 1777997614 | 23.33° C | 83% | 1008.7 hPa | 0 mm | - | 174 W/m² | - |
| 1777997311 | 22.78° C | 84% | 1008.7 hPa | 0 mm | - | 164 W/m² | - |
| 1777997010 | 22.78° C | 83% | 1008.8 hPa | 0 mm | - | 136 W/m² | - |
| 1777996706 | 22.78° C | 85% | 1008.6 hPa | 0 mm | - | 183 W/m² | - |
| 1777996401 | 22.78° C | 85% | 1008.8 hPa | 0 mm | - | 150 W/m² | - |
| 1777996098 | 22.78° C | 84% | 1008.9 hPa | 0 mm | - | 113 W/m² | - |
| 1777995794 | 22.78° C | 84% | 1008.9 hPa | 0 mm | - | 98 W/m² | - |
| 1777995491 | 22.78° C | 84% | 1008.8 hPa | 0 mm | - | 104 W/m² | - |
| 1777995188 | 22.78° C | 84% | 1008.7 hPa | 0 mm | - | 104 W/m² | - |
| 1777994885 | 22.78° C | 84% | 1008.5 hPa | 0 mm | - | 96 W/m² | - |
| 1777994582 | 22.78° C | 84% | 1008.8 hPa | 0 mm | - | 163 W/m² | - |
| 1777994282 | 22.78° C | 84% | 1008.8 hPa | 0 mm | - | 93 W/m² | - |
| 1777993979 | 22.78° C | 84% | 1008.9 hPa | 0 mm | - | 84 W/m² | - |
| 1777993676 | 22.78° C | 83% | 1008.5 hPa | 0 mm | - | 105 W/m² | - |
| 1777993373 | 22.78° C | 84% | 1008.7 hPa | 0 mm | - | 162 W/m² | - |
| 1777993073 | 22.22° C | 85% | 1008.8 hPa | 0 mm | - | 163 W/m² | - |
| 1777992772 | 22.22° C | 85% | 1008.7 hPa | 0 mm | - | 100 W/m² | - |
| 1777992469 | 22.22° C | 85% | 1008.7 hPa | 0 mm | - | 79 W/m² | - |
| 1777992167 | 22.22° C | 85% | 1008.7 hPa | 0 mm | - | 73 W/m² | - |
| 1777991864 | 22.22° C | 85% | 1008.3 hPa | 0 mm | - | 64 W/m² | - |
| 1777991562 | 22.22° C | 85% | 1008.5 hPa | 0 mm | - | 70 W/m² | - |
| 1777991258 | 22.22° C | 85% | 1008.6 hPa | 0 mm | - | 68 W/m² | - |
| 1777990956 | 22.22° C | 85% | 1008.6 hPa | 0 mm | - | 78 W/m² | - |
| 1777990653 | 21.67° C | 85% | 1008.7 hPa | 0 mm | - | 73 W/m² | - |
| 1777990351 | 21.67° C | 85% | 1008.6 hPa | 0 mm | - | 97 W/m² | - |
* Rain latest hour (hover to see other rain measurements)
** Current wind speed in m/s (hover to see current wind gust speed)